Location: Saratoga Springs
(43.0831°N, 73.7850°W)
Time: 02:14:46
(UTC-04:00)

Vanguard 1 Rocket - Pass Details

Date: 22 April 2024
Orbit: 651 x 4220 km, 34.3° (Epoch: 17 May)

Event Time Altitude Azimuth Distance (km) Brightness Sun altitude
Rises 19:28:51 0° 240° (WSW) 2,995 10.8 2.3°
Reaches altitude 10° 19:31:04 10° 230° (SW) 2,183 9.9 1.9°
Maximum altitude 19:35:25 33° 165° (SSE) 1,426 8.2 1.1°
Drops below altitude 10° 19:41:50 10° 103° (ESE) 3,260 9.6 0.0°
Sets 19:45:56 0° 96° (E) 4,769 10.4 -0.7°
Enters shadow 19:45:59 - 96° (E) 4,788 10.4 -0.7°
